This is the latest recevied weather packets stored in our database for station/object K4DNM. If no packets are shown the sender has not sent any weather packets the latest 10 day(s).
| Time | Temp. | Humidity | Pressure | Rain* | Wind** | Luminosity | Snow |
|---|---|---|---|---|---|---|---|
| 1787936400 | 29.44° C | 74% | 1015.9 hPa | 0 mm | - | 259 W/m² | - |
| 1787936036 | 30° C | 72% | 1015.9 hPa | 0 mm | - | 278 W/m² | - |
| 1787935738 | 30° C | 70% | 1015.9 hPa | 0 mm | - | 940 W/m² | - |
| 1787935432 | 29.44° C | 72% | 1015.9 hPa | 0 mm | - | 1000 W/m² | - |
| 1787935193 | 29.44° C | 73% | 1016.1 hPa | 0 mm | - | 523 W/m² | - |
| 1787934841 | 29.44° C | 73% | 1016.1 hPa | 0 mm | - | 347 W/m² | - |
| 1787934593 | 28.89° C | 75% | 1016.1 hPa | 0 mm | - | 759 W/m² | - |
| 1787934231 | 28.33° C | 76% | 1016.1 hPa | 0 mm | - | 888 W/m² | - |
| 1787933930 | 28.33° C | 78% | 1016.1 hPa | 0 mm | - | 408 W/m² | - |
| 1787933632 | 28.33° C | 79% | 1016.2 hPa | 0 mm | - | 338 W/m² | - |
| 1787933391 | 28.33° C | 77% | 1016.1 hPa | 0 mm | - | 372 W/m² | - |
| 1787933031 | 28.33° C | 78% | 1016.2 hPa | 0 mm | - | 318 W/m² | - |
| 1787932731 | 27.78° C | 79% | 1016.1 hPa | 0 mm | - | 1007 W/m² | - |
| 1787932491 | 27.78° C | 80% | 1016.1 hPa | 0 mm | - | 311 W/m² | - |
| 1787932191 | 27.78° C | 80% | 1016.2 hPa | 0 mm | - | 252 W/m² | - |
| 1787931832 | 27.22° C | 81% | 1016.2 hPa | 0 mm | - | 265 W/m² | - |
| 1787931531 | 26.67° C | 81% | 1016.2 hPa | 0 mm | - | 322 W/m² | - |
| 1787931229 | 26.67° C | 82% | 1016.2 hPa | 0 mm | - | 423 W/m² | - |
| 1787930625 | 25.56° C | 85% | 1016.2 hPa | 0 mm | - | 583 W/m² | - |
| 1787930327 | 25.56° C | 86% | 1016.3 hPa | 0 mm | - | 259 W/m² | - |
| 1787930025 | 25.56° C | 87% | 1016.3 hPa | 0 mm | - | 210 W/m² | - |
| 1787929727 | 25.56° C | 86% | 1016.3 hPa | 0 mm | - | 211 W/m² | - |
| 1787929425 | 25.56° C | 86% | 1016.3 hPa | 0 mm | - | 251 W/m² | - |
| 1787929127 | 25.56° C | 86% | 1016.3 hPa | 0 mm | - | 169 W/m² | - |
| 1787928826 | 25° C | 87% | 1016.3 hPa | 0 mm | - | 191 W/m² | - |
* Rain latest hour (hover to see other rain measurements)
** Current wind speed in m/s (hover to see current wind gust speed)